This demonstration page uses our WeatherBlox Daily Observations layout. Learn more.

Left ArrowRight Arrow

Hourly Observations for November 29, 2022

Temp ( °F °C ) Dew Point ( °F °C ) Humidity (%) Winds ( mph kmh ) Pressure ( in mb ) Visibility ( mi km ) Precip ( " mm )
12:52 am 00:52 Cloudy 39 3.9 28 -2.2 64 64 N 8 13 29.62 1003 10 16 0.00 0.00
1:52 am 01:52 Cloudy 39 3.9 28 -2.2 64 64 N 9 15 29.57 1002 10 16 0.00 0.00
2:52 am 02:52 Cloudy 40 4.4 29 -1.7 64 64 N 12 19 29.56 1001 10 16 0.00 0.00
3:52 am 03:52 Cloudy 40 4.4 29 -1.7 64 64 NNW 10 17 29.54 1000 10 16 0.00 0.00
4:13 am 04:13 Cloudy 40 4.4 28 -2.2 62 62 N 15 24 29.56 1001 10 16 0.00 0.00
4:52 am 04:52 Cloudy 38 3.3 27 -2.8 64 64 N 22 35 29.52 1000 10 16 0.00 0.00
5:52 am 05:52 Cloudy with Drizzle 36 2.2 27 -2.8 69 69 NNE 20 31 29.52 1000 10 16 0.00 0.00
6:52 am 06:52 Cloudy with Light Freezing Drizzle 32 0 27 -2.8 81 81 N 24 39 29.53 1000 6 10 0.01 0.13
7:47 am 07:47 Cloudy with Light Freezing Drizzle 30 -1 28 -2 93 93 N 21 33 29.60 1002 3 5 0.01 0.13
7:52 am 07:52 Cloudy with Light Freezing Drizzle 31 -0.6 28 -2.2 89 89 N 23 37 29.56 1001 3 5 0.01 0.13
8:47 am 08:47 Cloudy with Light Freezing Rain 30 -1 28 -2 93 93 N 25 41 29.62 1003 3 4 0.01 0.13
8:52 am 08:52 Cloudy with Light Freezing Rain 30 -1.1 28 -2.2 92 92 N 21 33 29.60 1002 3 4 0.01 0.13
9:52 am 09:52 Cloudy with Light Sleet/Snow 29 -1.7 26 -3.3 89 89 NNW 28 44 29.63 1003 2 3 0.01 0.13
10:32 am 10:32 Windy with Snow Likely 29 -1.7 26 -3.3 89 89 N 29 46 29.67 1005 1 2 0.01 0.13
10:52 am 10:52 Windy with Snow Likely 28 -2.2 25 -3.9 88 88 NNW 31 50 29.64 1004 1 2 0.01 0.13
11:17 am 11:17 Windy with Snow Likely 27 -2.8 23 -5 85 85 NNW 26 43 29.70 1006 4 6 0.01 0.13
11:52 am 11:52 Cloudy 27 -2.8 23 -5 85 85 NNW 29 46 29.68 1005 10 16 0.01 0.25
12:52 pm 12:52 Windy with Snow Likely 26 -3.3 21 -6.1 81 81 NNW 29 46 29.73 1007 10 16 0.01 0.13
1:01 pm 13:01 Windy with Snow Likely 26 -3.3 21 -6.1 81 81 NNW 20 31 29.78 1008 9 14 0.01 0.13
1:36 pm 13:36 Windy with Snow Likely 25 -3.9 21 -6.1 85 85 NW 22 35 29.79 1009 2 3 0.01 0.13
1:52 pm 13:52 Windy with Snow Likely 24 -4.4 20 -6.7 84 84 NNW 21 33 29.76 1008 2 2 0.01 0.13
2:15 pm 14:15 Windy with Snow Likely 24 -4.4 18 -7.8 77 77 NW 26 43 29.84 1011 2 3 0.01 0.13
2:34 pm 14:34 Windy with Snow Likely 24 -4.4 17 -8.3 74 74 NW 26 43 29.86 1011 7 11 0.01 0.13
2:52 pm 14:52 Cloudy with Light Snow 24 -4.4 18 -7.8 77 77 NNW 18 30 29.83 1010 8 13 0.01 0.13
3:52 pm 15:52 Cloudy 24 -4.4 15 -9.4 68 68 NW 16 26 29.87 1011 9 14 0.01 0.13
4:52 pm 16:52 Cloudy 23 -5 14 -10 68 68 NW 22 35 29.92 1013 10 16 0.00 0.00
5:52 pm 17:52 Mostly Cloudy 23 -5 13 -10.6 65 65 NW 16 26 29.97 1015 10 16 0.00 0.00
6:52 pm 18:52 Mostly Cloudy 22 -5.6 13 -10.6 68 68 NW 15 24 30.00 1016 10 16 0.00 0.00
7:52 pm 19:52 Mostly Cloudy 23 -5 13 -10.6 65 65 WNW 12 19 30.02 1017 10 16 0.00 0.00
8:52 pm 20:52 Partly Cloudy 23 -5 13 -10.6 65 65 WNW 9 15 30.05 1018 10 16 0.00 0.00
9:52 pm 21:52 Mostly Clear 23 -5 12 -11.1 62 62 WNW 15 24 30.07 1018 10 16 0.00 0.00
10:52 pm 22:52 Clear 22 -5.6 11 -11.7 62 62 WNW 14 22 30.10 1019 10 16 0.00 0.00
11:52 pm 23:52 Clear 21 -6.1 10 -12.2 62 62 WNW 15 24 30.13 1020 10 16 0.00 0.00

Powered by AerisWeather